Regional Weather Roundup
Issued by NWS

Home | Current Version | Previous Version | Graphics & Text | Print | Product List | Glossary On
Versions: 1 2 3 4 5 6 7 8 9 10 11 12 13 14 15 16 17 18 19 20 21 22 23 24 25 26 27 28 29 30 31 32 33 34 35 36 37 38 39 40 41 42 43 44 45 46 47 48 49 50
000
ASUS43 KBIS 281101
RWRND

NORTH DAKOTA REGIONAL WEATHER ROUNDUP
NATIONAL WEATHER SERVICE BISMARCK ND
500 AM CST SAT FEB 28 2015

NOTE: "FAIR" INDICATES FEW OR NO CLOUDS BELOW 12,000 FEET WITH NO
SIGNIFICANT WEATHER AND/OR OBSTRUCTIONS TO VISIBILITY.


NDZ001>003-009>011-017-281200-
NORTHWEST NORTH DAKOTA

CITY           SKY/WX    TMP DP  RH WIND       PRES   REMARKS
WILLISTON      CLOUDY     6  -1  73 N10       30.09R WCI  -9
MINOT          CLOUDY    14   3  61 SW15      30.05R WCI  -1
$$

NDZ018>021-031>035-040>046-281200-
SOUTHWEST NORTH DAKOTA

CITY           SKY/WX    TMP DP  RH WIND       PRES   REMARKS
BISMARCK       PTCLDY     8   1  73 SE8       30.07F WCI  -4
DICKINSON      CLEAR      6   1  80 W9        29.97S WCI  -8
GARRISON         N/A     11   4  73 SE5       30.03F WCI   3
HETTINGER ARPT MOCLDY     6   2  83 W3        30.01R
$$

NDZ004>008-012>016-024-026-027-054-281200-
NORTHEAST NORTH DAKOTA

CITY           SKY/WX    TMP DP  RH WIND       PRES   REMARKS
GRAND FORKS    MOCLDY     2  -4  76 S15       30.24F WCI -17
GRND FRKS AFB  FLURRIES   3  -4  73 S12       30.22F WCI -14
DEVILS LAKE    CLOUDY     9   1  72 S9        30.11S WCI  -5
$$

NDZ022-023-025-028>030-036>039-047>053-281200-
SOUTHEAST NORTH DAKOTA

CITY           SKY/WX    TMP DP  RH WIND       PRES   REMARKS
FARGO          PTCLDY     6  -2  69 S14       30.28F WCI -11
JAMESTOWN      PTCLDY     4  -2  76 S13       30.14F WCI -13
$$



USA.gov is the U.S. government's official web portal to all federal, state and local government web resources and services.